When you browse on this site, cookies collect data to enhance your experience and personalize the content and advertising you see.
Visit our Privacy Policy to learn more. By continuing to use the site, you agree to this use of cookies and data.
  • In Österreich
  • Länderverzeichnis
  • Für 7 Tage
  • Wassertemperatur
  • Wetterkarte
  • News
  • Widgets
  • user-avatar
    Anmelden

    Stündliche Wetter Rustawi

    Heute, 25 Januar, Samstag

    Zeit Temperatur Niederschläge Wind Luftdruck Luftfeuchtigkeit
    00:00 -4°C° 0 mm 4 m/S 734 mmHg 59%
    01:00 -4°C° 0 mm 4 m/S 734 mmHg 60%
    02:00 -4°C° 0 mm 3 m/S 734 mmHg 60%
    03:00 -4°C° 0 mm 3 m/S 735 mmHg 61%
    04:00 -5°C° 0 mm 3 m/S 735 mmHg 62%
    05:00 -5°C° 0 mm 3 m/S 735 mmHg 62%
    06:00 -4°C° 0 mm 2 m/S 735 mmHg 62%
    07:00 -3°C° 0 mm 2 m/S 735 mmHg 59%
    08:00 -3°C° 0 mm 2 m/S 735 mmHg 55%
    09:00 -2°C° 0 mm 2 m/S 735 mmHg 51%
    10:00 -1°C° 0 mm 3 m/S 734 mmHg 47%
    11:00 0°C° 0 mm 3 m/S 734 mmHg 42%
    12:00 +1°C° 0 mm 3 m/S 733 mmHg 37%
    13:00 +2°C° 0 mm 3 m/S 732 mmHg 36%
    14:00 +3°C° 0 mm 2 m/S 732 mmHg 35%
    15:00 +4°C° 0 mm 2 m/S 731 mmHg 34%
    16:00 +3°C° 0 mm 2 m/S 731 mmHg 38%
    17:00 +2°C° 0 mm 2 m/S 731 mmHg 42%
    18:00 +2°C° 0 mm 1 m/S 731 mmHg 46%
    19:00 +1°C° 0 mm 1 m/S 731 mmHg 47%
    20:00 -1°C° 0 mm 2 m/S 731 mmHg 49%
    21:00 -1°C° 0 mm 2 m/S 731 mmHg 50%
    22:00 -1°C° 0 mm 2 m/S 730 mmHg 51%
    23:00 -2°C° 0 mm 2 m/S 730 mmHg 52%

    Morgen, 26 Januar, Sonntag

    Zeit Temperatur Niederschläge Wind Luftdruck Luftfeuchtigkeit
    00:00 -2°C° 0 mm 2 m/S 730 mmHg 54%
    01:00 -2°C° 0 mm 2 m/S 730 mmHg 53%
    02:00 -2°C° 0 mm 2 m/S 730 mmHg 52%
    03:00 -2°C° 0 mm 2 m/S 730 mmHg 51%
    04:00 -2°C° 0 mm 2 m/S 729 mmHg 50%
    05:00 -2°C° 0 mm 2 m/S 729 mmHg 49%
    06:00 -2°C° 0 mm 2 m/S 729 mmHg 48%
    07:00 -1°C° 0 mm 3 m/S 729 mmHg 45%
    08:00 0°C° 0 mm 3 m/S 729 mmHg 41%
    09:00 +1°C° 0 mm 3 m/S 730 mmHg 38%
    10:00 +3°C° 0 mm 4 m/S 729 mmHg 34%
    11:00 +5°C° 0 mm 5 m/S 729 mmHg 30%
    12:00 +7°C° 0 mm 5 m/S 729 mmHg 26%
    13:00 +8°C° 0 mm 6 m/S 728 mmHg 25%
    14:00 +8°C° 0 mm 7 m/S 728 mmHg 24%
    15:00 +9°C° 0 mm 8 m/S 728 mmHg 23%
    16:00 +6°C° 0 mm 7 m/S 729 mmHg 26%
    17:00 +5°C° 0 mm 7 m/S 729 mmHg 29%
    18:00 +3°C° 0 mm 6 m/S 730 mmHg 32%
    19:00 +3°C° 0 mm 6 m/S 730 mmHg 35%
    20:00 +2°C° 0 mm 5 m/S 730 mmHg 38%
    21:00 +2°C° 0 mm 5 m/S 731 mmHg 41%
    22:00 +1°C° 0 mm 4 m/S 731 mmHg 44%
    23:00 +1°C° 0 mm 4 m/S 731 mmHg 46%

    übermorgen, 27 Januar, Montag

    Zeit Temperatur Niederschläge Wind Luftdruck Luftfeuchtigkeit
    00:00 +2°C° 0 mm 3 m/S 731 mmHg 49%
    01:00 +1°C° 0 mm 3 m/S 732 mmHg 51%
    02:00 +2°C° 0 mm 2 m/S 732 mmHg 54%
    03:00 +1°C° 0 mm 2 m/S 732 mmHg 56%
    04:00 +1°C° 0 mm 2 m/S 732 mmHg 57%
    05:00 +2°C° 0 mm 1 m/S 733 mmHg 58%
    06:00 +1°C° 0 mm 1 m/S 733 mmHg 59%
    07:00 +2°C° 0 mm 1 m/S 733 mmHg 56%
    08:00 +3°C° 0 mm 1 m/S 734 mmHg 52%
    09:00 +3°C° 0 mm 0 m/S 734 mmHg 49%
    10:00 +5°C° 0 mm 1 m/S 734 mmHg 46%
    11:00 +6°C° 0 mm 1 m/S 733 mmHg 44%
    12:00 +6°C° 0 mm 2 m/S 733 mmHg 41%
    13:00 +6°C° 0 mm 2 m/S 733 mmHg 41%
    14:00 +6°C° 0 mm 2 m/S 732 mmHg 41%
    15:00 +7°C° 0 mm 2 m/S 732 mmHg 40%
    16:00 +7°C° 0 mm 1 m/S 732 mmHg 45%
    17:00 +5°C° 0 mm 1 m/S 732 mmHg 50%
    18:00 +3°C° 0 mm 0 m/S 732 mmHg 54%
    19:00 +3°C° 0 mm 0 m/S 732 mmHg 56%
    20:00 +2°C° 0 mm 0 m/S 732 mmHg 57%
    21:00 +2°C° 0 mm 0 m/S 732 mmHg 59%
    22:00 +2°C° 0 mm 0 m/S 732 mmHg 60%
    23:00 +1°C° 0 mm 0 m/S 732 mmHg 61%

    28 Januar, Dienstag

    Zeit Temperatur Niederschläge Wind Luftdruck Luftfeuchtigkeit
    00:00 +1°C° 0 mm 0 m/S 731 mmHg 62%
    01:00 +1°C° 0 mm 0 m/S 731 mmHg 63%
    02:00 +1°C° 0 mm 0 m/S 731 mmHg 63%
    03:00 0°C° 0 mm 0 m/S 731 mmHg 64%
    04:00 0°C° 0 mm 0 m/S 730 mmHg 64%
    05:00 0°C° 0 mm 0 m/S 730 mmHg 64%
    06:00 0°C° 0 mm 0 m/S 730 mmHg 64%
    07:00 +1°C° 0 mm 0 m/S 730 mmHg 59%
    08:00 +2°C° 0 mm 0 m/S 730 mmHg 55%
    09:00 +3°C° 0 mm 0 m/S 730 mmHg 51%
    10:00 +4°C° 0 mm 0 m/S 729 mmHg 48%
    11:00 +5°C° 0 mm 0 m/S 729 mmHg 45%
    12:00 +7°C° 0 mm 1 m/S 728 mmHg 43%
    13:00 +7°C° 0 mm 1 m/S 728 mmHg 42%
    14:00 +8°C° 0 mm 1 m/S 727 mmHg 40%
    15:00 +8°C° 0 mm 1 m/S 727 mmHg 39%
    16:00 +7°C° 0 mm 1 m/S 727 mmHg 43%
    17:00 +5°C° 0 mm 0 m/S 727 mmHg 47%
    18:00 +4°C° 0 mm 0 m/S 727 mmHg 51%
    19:00 +4°C° 0 mm 0 m/S 727 mmHg 52%
    20:00 +3°C° 0 mm 0 m/S 727 mmHg 53%
    21:00 +3°C° 0 mm 0 m/S 727 mmHg 54%
    22:00 +3°C° 0 mm 0 m/S 727 mmHg 53%
    23:00 +3°C° 0 mm 0 m/S 726 mmHg 53%

    29 Januar, Mittwoch

    Zeit Temperatur Niederschläge Wind Luftdruck Luftfeuchtigkeit
    00:00 +3°C° 0 mm 0 m/S 726 mmHg 53%
    01:00 +3°C° 0 mm 0 m/S 726 mmHg 54%
    02:00 +2°C° 0 mm 0 m/S 726 mmHg 54%
    03:00 +2°C° 0 mm 0 m/S 726 mmHg 55%
    04:00 +2°C° 0 mm 0 m/S 725 mmHg 54%
    05:00 +3°C° 0 mm 1 m/S 725 mmHg 54%
    06:00 +2°C° 0 mm 1 m/S 725 mmHg 54%
    07:00 +3°C° 0 mm 1 m/S 725 mmHg 50%
    08:00 +4°C° 0 mm 1 m/S 725 mmHg 46%
    09:00 +5°C° 0 mm 1 m/S 726 mmHg 43%
    10:00 +7°C° 0 mm 1 m/S 725 mmHg 39%
    11:00 +8°C° 0 mm 1 m/S 725 mmHg 35%
    12:00 +10°C° 0 mm 1 m/S 725 mmHg 31%
    13:00 +9°C° 0 mm 2 m/S 724 mmHg 31%
    14:00 +10°C° 0 mm 2 m/S 724 mmHg 30%
    15:00 +12°C° 0 mm 2 m/S 724 mmHg 30%
    16:00 +9°C° 0 mm 2 m/S 725 mmHg 34%
    17:00 +8°C° 0 mm 2 m/S 725 mmHg 39%
    18:00 +8°C° 0 mm 1 m/S 726 mmHg 43%
    19:00 +7°C° 0 mm 1 m/S 726 mmHg 46%
    20:00 +6°C° 0 mm 2 m/S 726 mmHg 48%
    21:00 +5°C° 0 mm 2 m/S 726 mmHg 51%
    22:00 +5°C° 0 mm 2 m/S 727 mmHg 54%
    23:00 +4°C° 0 mm 2 m/S 727 mmHg 56%

    30 Januar, Donnerstag

    Zeit Temperatur Niederschläge Wind Luftdruck Luftfeuchtigkeit
    00:00 +4°C° 0 mm 2 m/S 727 mmHg 59%
    01:00 +4°C° 0 mm 2 m/S 727 mmHg 61%
    02:00 +3°C° 0 mm 2 m/S 727 mmHg 63%
    03:00 +3°C° 0 mm 2 m/S 727 mmHg 65%
    04:00 +3°C° 0 mm 2 m/S 727 mmHg 66%
    05:00 +3°C° 0 mm 2 m/S 727 mmHg 67%
    06:00 +3°C° 0 mm 2 m/S 727 mmHg 68%
    07:00 +3°C° 0 mm 2 m/S 727 mmHg 65%
    08:00 +5°C° 0 mm 1 m/S 727 mmHg 62%
    09:00 +6°C° 0 mm 1 m/S 727 mmHg 59%
    10:00 +8°C° 0 mm 1 m/S 727 mmHg 53%
    11:00 +8°C° 0 mm 2 m/S 726 mmHg 46%
    12:00 +10°C° 0 mm 2 m/S 726 mmHg 40%
    13:00 +12°C° 0 mm 1 m/S 726 mmHg 38%
    14:00 +12°C° 0 mm 1 m/S 725 mmHg 36%
    15:00 +13°C° 0 mm 1 m/S 725 mmHg 35%
    16:00 +11°C° 0 mm 1 m/S 725 mmHg 39%
    17:00 +10°C° 0 mm 1 m/S 725 mmHg 44%
    18:00 +8°C° 0 mm 0 m/S 725 mmHg 48%
    19:00 +8°C° 0 mm 1 m/S 725 mmHg 49%
    20:00 +8°C° 0 mm 1 m/S 725 mmHg 51%
    21:00 +7°C° 0 mm 1 m/S 725 mmHg 52%
    22:00 +7°C° 0 mm 1 m/S 725 mmHg 52%
    23:00 +6°C° 0 mm 1 m/S 725 mmHg 53%
    Mehr zeigen